sat.trackr.live / text

‹ back to catalog

STARLINK-11402 [DTC]

NORAD 61874 · 2024-204A

PAYLOAD ACTIVE UNKNOWN

§ Identity

Operator
Country
US
Launch date
2024-11-09
Launch site
AFWTR
Launch vehicle
Mass (kg)
RCS (m²)

Purposes: comms

External: N2YO · Heavens-Above · Gunter

§ Orbital elements

Epoch: 2026-09-21T19:32:52.292832Z

Period
91.74 min
Inclination
53.1597°
Eccentricity
0.0000997
Mean motion
15.69706338 rev/d
Perigee alt
359.1 km
Apogee alt
360.4 km
Semi-major
6,737.9 km
B*
6.4774e-6
RAAN
109.7996°
Arg perigee
92.5556°
Mean anomaly
267.5577°
Rev number
10,830

§ Raw data

STARLINK-11402 [DTC]1 61874U 24204A   26264.81449413  .00000196  00000+0  64774-5 0  99902 61874  53.1597 109.7996 0000997  92.5556 267.5577 15.69706338108305

JSON: /api/v1/satellites/61874 · /tle

For live sub-satellite position, see the globe view (requires WebGL).

§ Visibility from observer

Set your observer location to see the next 7 days of passes ≥ 10°. The values pass through the URL so the page stays shareable.

No JS? Fill the form by hand. The geolocation button needs JavaScript.